Location: Ostrava
(49.8330°N, 18.2830°E)
Time: 03:56:08
(UTC+02:00)

Iridium 7 - Visible Passes

Search period start: 29 April 2016 00:00
Search period end: 09 May 2016 00:00
Orbit: 776 x 779 km, 86.4° (Epoch: 28 April)

Date Brightness Start Highest point End Pass type
(mag) Time Alt. Az. Time Alt. Az. Time Alt. Az.
29 Apr 8.7 20:58:10 10° W 21:01:01 15° WNW 21:03:53 10° NNW visible
02 May 9.1 04:34:35 10° NE 04:36:23 12° ENE 04:38:13 10° E visible
02 May 9.2 21:00:21 10° WNW 21:01:26 11° WNW 21:02:32 10° NW visible
05 May 8.6 04:33:38 10° NNE 04:36:48 16° ENE 04:39:57 10° ESE visible
